Regional Weather Roundup
Issued by NWS Upton, NY

Home | Current Version | Previous Version | Text Only | Print | Product List | Glossary On
Versions: 1 2 3 4 5 6 7 8 9 10 11 12 13 14 15 16 17 18 19 20 21 22 23 24 25 26 27
000
ASUS41 KOKX 181809
RWROKX

REGIONAL WEATHER ROUNDUP
NATIONAL WEATHER SERVICE NEW YORK NY
200 PM EDT FRI AUG 18 2017

NOTE: "FAIR" INDICATES FEW OR NO CLOUDS BELOW 12,000 FEET WITH NO
SIGNIFICANT WEATHER AND/OR OBSTRUCTIONS TO VISIBILITY.

NYZ071-072-176-178-NJZ106-104-181900-
NEW YORK CITY METRO AREA

CITY           SKY/WX    TMP DP  RH WIND       PRES   REMARKS
Central Park   CLOUDY    79  76  90 VRB5      29.86F
Bronx Bot Gard   N/A     81  73  78 SE5       29.86R
LaGuardia APRT LGT RAIN  81  77  88 S13       29.83F
Kennedy INTL   CLOUDY    79  78  97 S17       29.86S
Breezy Point     N/A     75 N/A N/A S10         N/A
Newark/Liberty LGT RAIN  80  76  87 S8        29.83F
Teterboro      NOT AVBL
$$

NYZ177-179-078>081-181900-
LONG ISLAND NEW YORK

CITY           SKY/WX    TMP DP  RH WIND       PRES   REMARKS
Jones Beach      N/A     77 N/A N/A S13G18      N/A
Matinecock PT    N/A     79 N/A N/A SW9         N/A
Farmingdale    CLOUDY    79  75  87 SW17G24   29.85F
MacArthur/ISP  CLOUDY    80  76  87 S13G23    29.85F
Shirley        CLOUDY    79  76  90 S16       29.86F
Mt Sinai Harb    N/A     79 N/A N/A S10G17      N/A
Westhampton    CLOUDY    78  74  87 S13G23    29.89F
East Hampton   CLOUDY    74  73  94 S9G20     29.87F
Montauk          N/A     73  73 100 S8        29.90F
$$

NYZ052-065-067-181900-
HUDSON VALLEY

CITY           SKY/WX    TMP DP  RH WIND       PRES   REMARKS
White Plains   CLOUDY    79  76  90 S7        29.85F FOG
Larchmont Harb   N/A     77 N/A N/A S12         N/A
Croton On Huds   N/A     77 N/A N/A S3          N/A
Newburgh       CLOUDY    79  75  89 SW7       29.85F
Montgomery     CLOUDY    79  73  82 SW6       29.83F
Poughkeepsie   CLOUDY    79  72  79 VRB6      29.82F
Albany         NOT AVBL
$$

NJZ001-105-106-008-010-013-015-019>022-104-181900-
NEW JERSEY

CITY           SKY/WX    TMP DP  RH WIND       PRES   REMARKS
Newark/Liberty LGT RAIN  80  76  87 S8        29.83F
Teterboro      NOT AVBL
Caldwell       CLOUDY    80  77  90 VRB3      29.84F
Somerville     CLOUDY    81  77  88 S5        29.82F
Linden         DRIZZLE   79  76  89 CALM      29.84F
Perth Amboy      N/A     79 N/A N/A S8          N/A
Sussex         LGT RAIN  79  75  87 SW5       29.84S
Andover          N/A     80  74  81 SW5       29.85F
Trenton        CLOUDY    82  77  84 SW6       29.83F HX  90
Millville      CLOUDY    88  80  77 SW10      29.84F HX 104
Atlantic City  PTSUNNY   86  78  77 S10       29.84F HX  98
Wrightstown    PTSUNNY   82  79  89 S8        29.81F HX  92
Toms River     CLOUDY    84  79  85 S9        29.85F HX  96
Belmar         CLOUDY    83  76  79 S10       29.85F HX  91
$$

PAZ047>061-062-071-181900-
EASTERN PENNSYLVANIA

CITY           SKY/WX    TMP DP  RH WIND       PRES   REMARKS
Philadelphia   CLOUDY    84  76  76 W10       29.83F HX  93
Allentown      NOT AVBL
Scranton       CLOUDY    80  75  84 SW7       29.82F
$$

CTZ002-004>006-009-010-012-RIZ004-006-007-MAZ004-011-015-181900-
SOUTHERN NEW ENGLAND
 IN CT

CITY           SKY/WX    TMP DP  RH WIND       PRES   REMARKS
Bradley INTL   NOT AVBL
Hartford       CLOUDY    79  74  84 S12       29.83F
Danbury        CLOUDY    77  75  93 SW8       29.86F
Wtrbury/Oxford LGT RAIN  75  73  94 S7        29.87F
Norwalk Harbor   N/A     75 N/A N/A MISG        N/A
Bridgeport     CLOUDY    79  75  87 S14       29.84F
Meriden        CLOUDY    77  74  90 S6        29.84F
New Haven      CLOUDY    79  75  87 S8        29.85F
Chester        NOT AVBL
Groton         LGT RAIN  73  72  96 S15       29.87F FOG
Wilimantic     CLOUDY    78  73  84 S12       29.86F

 IN RI

CITY           SKY/WX    TMP DP  RH WIND       PRES   REMARKS
Providence     CLOUDY    79  72  78 S14G28    29.90F
Block Island   HVY RAIN  72  72 100 S13       29.92S FOG
Westerly       LGT RAIN  73  72  96 S14G23    29.89F FOG
 IN MA

CITY           SKY/WX    TMP DP  RH WIND       PRES   REMARKS
Boston         CLOUDY    79  69  71 S20G28    29.86
Worcester      CLOUDY    76  66  71 S12       29.89F
Westfield      CLOUDY    78  73  84 S7        29.83F
Provincetown   CLOUDY    74  70  87 S16G23    29.91F
Nantucket      CLOUDY    70  69  97 S13       29.95F FOG
$$

ANZ330-335-338-340-345-350-353-355-181900-
COASTAL MARINE OBSERVATIONS


STATION/POSITION TIME  SKY/WX   TEMP    WIND        PRES    VSBY  WAVE
                                AIR SEA DIR/SP/G                  HT/PER
                 (UTC)          (F)     (DEG/KT/KT) (MB)    (MI)  (FT/S)
NY HARB ENTRANCE 1750            77 76  190/ 16/ 19 1010.0          3/ 5
GREAT SOUTH BAY  1730            76 78  200/ 12/ 16   N/A
23 SSW MONTAUK P 1750            74 71              1012.1          4/ 5
15 E BARNEGAT LI 1730               76                N/A           4/ 5
HUDSON CANYON    1750            77 75  180/ 16/ 17 1012.2          4/ 4
KINGS POINT      1748            78 75  230/ 11/ 14 1010.3
EXECUTION ROCKS  NOT AVBL
WESTERN LI SOUND NOT AVBL
CENTRAL LI SOUND NOT AVBL
EASTERN LI SOUND NOT AVBL
ROBBINS REEF     1748                   190/ 11/ 13 1011.1
$$


>>>>>>>>>>>>>>>>>>>>>>>>>>>> KEY <<<<<<<<<<<<<<<<<<<<<<<<<<<
>                                                          <
>     SKY/WX - Sky Condition/Present Weather               <
>     TMP    - Temperature in Fahrenheit                   <
>     DP     - Dew Point in Fahrenheit                     <
>     RH     - Relative Humidity in Percent                <
>     WIND   - Direction (from) and Speed in MPH           <
>     PRES   - Mean Sea Level Pressure (inches of Hg)      <
>     WCI    - Wind Chill Index                            <
>     VSB    - VISIBILITY IN MILES                         <
>     HX     - HEAT INDEX                                  <
>     TC     - TEMPERATURE IN CELSIUS                      <
>     VRB    - VARIABLE WIND DIRECTION                     <
>                                                          <
>>>>>>>>>>>>>>>>>>>>>>>>>>>> KEY <<<<<<<<<<<<<<<<<<<<<<<<<<<




USA.gov is the U.S. government's official web portal to all federal, state and local government web resources and services.